Погода в Песках

Россия / Курганская область     56°06′36″N   62°53′27″E
темп.,
°C
ветер,
м/с
пор.,
м/с
влажн.,
%
обл.,
%
осадки,
мм/ч
давл.,
гПа
погр.,
м
12 апреля, пн
пн1223:00+3ююз411926 0.0 1033171
02:00+3юз4792100 0.0 103388
05:00+4зюз3489100 0.0 103453
08:00+6з3794100 0.1 1034125
11:00+6зсз3699100 0.4 1035137
14:00+7сз3597100 0.4 1035175
17:00+9с3776100 0.4 1036237
20:00+7с2283100 0.0 103813
13 апреля, вт
вт1323:00+5ссв33843 0.0 103919
02:00+3с33831 0.0 104029
05:00+2ссв22840 0.0 104211
08:00+4ссв00780 0.0 104257
11:00+8ююз12640 0.0 1042425
14:00+11ююз33541 0.0 1041811
17:00+12юз34511 0.0 1039875
20:00+9ююз33670 0.0 103830
14 апреля, ср
ср1423:00+7ююз48745 0.0 1037111
02:00+6ююз41177100 0.0 1035173
05:00+6юз51179100 0.0 1034197
08:00+7юз488251 0.0 1034191
11:00+13зюз467161 0.0 1032491
14:00+17з566146 0.0 10301012
17:00+17з455933 0.0 10291109
20:00+14юз347610 0.0 102855
15 апреля, чт
чт1523:00+11зюз36836 0.0 102779
02:00+10з338637 0.0 102735
05:00+9з33865 0.0 102621
08:00+11зюз24825 0.0 1025115
11:00+15зюз346418 0.0 1024517
14:00+18зюз45536 0.0 10221139
17:00+19зюз45505 0.0 10201410
20:00+15юз34695 0.0 101841
16 апреля, пт
пт1623:00+12зюз36795 0.0 101878
02:00+11з33755 0.0 101621
05:00+9зсз33798 0.0 101619
08:00+10зсз247066 0.0 1015116
11:00+14з234973 0.0 1013476
14:00+16з333982 0.0 10121282
17:00+17з233966 0.0 10101688
20:00+13ю225562 0.0 100811